SCP
0 0 0 0 0 0 0 0 0 0 0 0 0 0 0 0 0 0 0 0 0 0
0 0 0 0 0 0 0 0 0 0 0 0 0 0 0 0 0 0 0 0 0 0
0 0 0 0 0 0 0 0 0 0 0 0 0 0 0 0 0 0 0 0 0 0
0 0 0 0 0 0 0 0 0 0 0 0 0 0 0 0 0 0 0 0 0 0
0 0 0 0 0 0 0 0 0 0 0 0 0 0 0 0 0 0 0 0 0 0
0 0 0 0 0 0 0 0 0 0 0 0 0 0 0 0 0 0 0 0 0 0
0 0 0 0 0 0 0 0 0 0 0 0 0 0 0 0 0 0 0 0 0 0
0 0 0 0 0 0 0 0 0 0 0 0 0 0 0 0 0 0 0 0 0 0
0 0 0 0 0 0 0 0 0 0 0 0 0 0 0 0 0 0 0 0 0 0
0 0 0 0 0 0 0 0 0 0 0 0 0 0 0 0 0 0 0 0 0 0
0 0 0 0 0 0 0 0 0 0 0 0 0 0 0 0 0 0 0 0 0 0
0 0 0 0 0 0 0 0 0 0 0 0 0 0 0 0 0 0 0 0 0 0
0 0 0 0 0 0 0 0 0 0 0 0 0 0 0 0 0 0 0 0 0 0
0 0 0 0 0 0 0 0 0 0 0 0 0 0 0 0 0 0 0 0 0 0
Wind_Speed_500mb
66 66 68 67 61 55 58 53 52 45 45 41 46 46 43 35 39 37 28 30 29 30
66 69 73 71 59 53 52 47 52 47 44 43 44 31 30 32 28 24 25 29 32 28
56 57 59 61 53 41 44 42 46 43 35 38 33 32 25 26 22 21 21 14 11 11
49 46 40 36 39 42 43 41 40 32 32 36 27 24 23 21 16 11 7 4 7 12
29 27 26 27 32 35 36 38 29 30 29 25 24 23 17 12 9 4 2 8 12 15
24 25 29 32 34 34 32 29 30 26 25 25 22 18 15 12 7 2 3 7 12 16
25 28 29 29 30 30 30 28 27 26 27 25 23 19 13 9 5 3 4 9 11 15
29 31 32 32 32 31 29 28 30 30 29 26 21 17 12 9 3 4 9 13 13 13
35 36 35 34 34 34 33 33 32 31 28 25 20 16 11 6 4 11 10 7 8 10
39 39 39 38 37 38 38 37 35 31 25 22 20 16 8 6 10 8 5 5 6 9
43 42 41 42 42 41 39 38 36 31 26 23 21 7 4 11 9 7 7 2 5 11
43 45 46 45 44 43 42 39 35 31 28 24 10 7 12 9 9 8 4 1 6 14
46 46 46 45 47 46 42 39 37 34 27 16 11 15 13 11 12 10 7 5 8 16
48 47 46 48 49 48 46 43 39 33 23 17 18 17 16 15 14 12 9 8 10 17
Wind_Direction_500mb
248 250 252 255 255 256 261 257 256 258 265 265 276 266 271 266 287 274 273 283 286 295
252 253 252 249 249 248 252 252 251 257 262 270 272 256 267 274 272 271 286 289 287 287
254 253 251 248 246 238 237 246 251 254 261 250 252 266 260 267 271 286 283 282 296 315
248 246 242 236 232 238 226 241 249 251 240 254 243 255 264 268 265 257 266 290 342 352
232 226 220 212 208 209 228 240 243 229 223 243 249 253 235 219 200 195 342 357 354 347
211 203 205 209 215 219 232 218 225 227 230 237 225 205 191 183 177 148 2 353 341 343
202 200 199 202 205 216 217 219 219 222 218 204 193 185 178 167 145 102 359 355 353 347
200 200 203 204 206 209 209 212 211 201 190 184 177 172 168 143 109 31 357 328 338 340
209 207 205 207 207 211 206 200 192 185 185 182 177 166 155 130 35 328 302 328 337 350
213 212 210 208 211 204 195 190 186 183 182 179 169 153 135 321 295 267 284 326 2 13
218 215 211 205 201 197 192 189 187 183 178 173 166 179 269 252 242 266 282 330 30 9
216 212 207 201 199 196 192 188 186 182 178 174 194 258 240 234 262 266 235 273 349 1
215 211 206 202 200 196 193 192 188 187 184 196 246 236 217 238 249 232 231 281 337 346
211 208 205 204 199 197 194 192 191 188 199 235 243 233 227 232 231 224 250 285 329 339
Wind_Speed_850mb
66 66 68 67 61 55 58 53 52 45 45 41 46 46 43 35 39 37 28 30 29 30
66 69 73 71 59 53 52 47 52 47 44 43 44 31 30 32 28 24 25 29 32 28
56 57 59 61 53 41 44 42 46 43 35 38 33 32 25 26 22 21 21 14 11 11
49 46 40 36 39 42 43 41 40 32 32 36 27 24 23 21 16 11 7 4 7 12
29 27 26 27 32 35 36 38 29 30 29 25 24 23 17 12 9 4 2 8 12 15
24 25 29 32 34 34 32 29 30 26 25 25 22 18 15 12 7 2 3 7 12 16
25 28 29 29 30 30 30 28 27 26 27 25 23 19 13 9 5 3 4 9 11 15
29 31 32 32 32 31 29 28 30 30 29 26 21 17 12 9 3 4 9 13 13 13
35 36 35 34 34 34 33 33 32 31 28 25 20 16 11 6 4 11 10 7 8 10
39 39 39 38 37 38 38 37 35 31 25 22 20 16 8 6 10 8 5 5 6 9
43 42 41 42 42 41 39 38 36 31 26 23 21 7 4 11 9 7 7 2 5 11
43 45 46 45 44 43 42 39 35 31 28 24 10 7 12 9 9 8 4 1 6 14
46 46 46 45 47 46 42 39 37 34 27 16 11 15 13 11 12 10 7 5 8 16
48 47 46 48 49 48 46 43 39 33 23 17 18 17 16 15 14 12 9 8 10 17
Wind_Direction_850mb
248 250 252 255 255 256 261 257 256 258 265 265 276 266 271 266 287 274 273 283 286 295
252 253 252 249 249 248 252 252 251 257 262 270 272 256 267 274 272 271 286 289 287 287
254 253 251 248 246 238 237 246 251 254 261 250 252 266 260 267 271 286 283 282 296 315
248 246 242 236 232 238 226 241 249 251 240 254 243 255 264 268 265 257 266 290 342 352
232 226 220 212 208 209 228 240 243 229 223 243 249 253 235 219 200 195 342 357 354 347
211 203 205 209 215 219 232 218 225 227 230 237 225 205 191 183 177 148 2 353 341 343
202 200 199 202 205 216 217 219 219 222 218 204 193 185 178 167 145 102 359 355 353 347
200 200 203 204 206 209 209 212 211 201 190 184 177 172 168 143 109 31 357 328 338 340
209 207 205 207 207 211 206 200 192 185 185 182 177 166 155 130 35 328 302 328 337 350
213 212 210 208 211 204 195 190 186 183 182 179 169 153 135 321 295 267 284 326 2 13
218 215 211 205 201 197 192 189 187 183 178 173 166 179 269 252 242 266 282 330 30 9
216 212 207 201 199 196 192 188 186 182 178 174 194 258 240 234 262 266 235 273 349 1
215 211 206 202 200 196 193 192 188 187 184 196 246 236 217 238 249 232 231 281 337 346
211 208 205 204 199 197 194 192 191 188 199 235 243 233 227 232 231 224 250 285 329 339